Orbital Elements at Epoch 2459200.5 (2020-Dec-17.0) TDB
Reference: JPL 22 (heliocentric ecliptic J2000)
Element | Value | Uncertainty (1-sigma) | Units |
e | .2747037092592767 | 3.8959e-08 | |
a | 2.345361324105939 | 6.4017e-09 | au |
q | 1.701081868820789 | 9.0902e-08 | au |
i | 1.176225233503749 | 3.1899e-06 | deg |
node | 287.6411621128885 | 0.00023079 | deg |
peri | 50.99862511714422 | 0.0002309 | deg |
M | 41.38622020644834 | 6.8618e-06 | deg |
tp | 2459049.677432691191 (2020-Jul-19.17743269) | 2.4979e-05 | TDB |
period | 1311.937257384798 3.59 | 5.3714e-06 1.471e-08 | d yr |
n | .2744033664518531 | 1.1235e-09 | deg/d |
Q | 2.98964077939109 | 8.1602e-09 | au |
|
| | Orbit Determination Parameters
Additional Information
|